Location: Rounton
(54.4000°N, 1.3500°W)
Time: 07:32:07
(UTC+00:00)

SR - Pass Details

Date: 03 December 2021
Orbit: 582 x 872 km, 66.7° (Epoch: 23 January)

Event Time Altitude Azimuth Distance (km) Brightness Sun altitude
Exits shadow 07:20:50 - 320° (NW) 2,214 ? -6.3°
Reaches altitude 10° 07:21:34 10° 321° (NW) 1,916 ? -6.2°
Maximum altitude 07:25:49 69° 45° (NE) 642 ? -5.7°
Drops below altitude 10° 07:30:14 10° 130° (SE) 1,978 ? -5.1°
Sets 07:32:34 0° 132° (SE) 2,916 ? -4.8°
